Home   Weather   Grand Prairie   Past weeks
Flag for USA

Past Weather in Grand Prairie, Texas, USA — Yesterday and Last 2 Weeks

Now
52 °F

Clear.


Feels Like: 52 °F
Forecast: 73 / 51 °F
Wind: No wind

Location: Grand Prairie Municipal Airport

Current Time: Mar 29, 2020 at 8:16:51 am

Latest Report: Mar 29, 2020 at 6:50 am


Visibility: 10 mi

Pressure: 30.12 "Hg

Humidity: 62%

Dew Point: 39 °F

Location of Grand PrairieLocation

Past Weather in Grand Prairie — Graph

°F

Grand Prairie Temperature Yesterday

Maximum temperature yesterday: 75 °F (at 2:50 pm)
Minimum temperature yesterday: 57 °F (at 11:35 pm)
Average temperature yesterday: 69 °F

High & Low Weather Summary for the Past Weeks

 TemperatureHumidityPressure
High86 °F (Mar 25, 3:51 pm)100% (Mar 14, 6:15 am)30.46 "Hg (Mar 14, 6:15 am)
Low42 °F (Mar 21, 5:55 am)15% (Mar 24, 2:50 pm)29.68 "Hg (Mar 27, 4:50 pm)
Average63 °F83%30.03 "Hg
* Reported Mar 14 6:15 am — Mar 29 6:50 am, Grand Prairie. Weather by CustomWeather, © 2020

Note: Actual official high and low records may vary slightly from our data, if they occured in-between our weather recording intervals... More about our weather records

Grand Prairie Weather History for the Previous 24 Hours

Scroll right to see more
 ConditionsComfort  
Time TempWeatherWind HumidityBarometerVisibility
6:50 am
Sun, Mar 29
52 °FClear.No wind62%30.12 "Hg10 mi
6:35 am52 °FClear.No wind65%30.12 "Hg10 mi
6:15 am53 °FClear.5 mph62%30.11 "Hg10 mi
5:55 am53 °FClear.6 mph61%30.09 "Hg10 mi
5:35 am53 °FClear.8 mph61%30.08 "Hg10 mi
5:15 am54 °FClear.9 mph59%30.07 "Hg10 mi
4:55 am55 °FClear.6 mph56%30.07 "Hg10 mi
4:35 am54 °FClear.7 mph60%30.06 "Hg10 mi
4:15 am54 °FClear.6 mph59%30.05 "Hg10 mi
3:55 am54 °FClear.8 mph61%30.05 "Hg10 mi
3:35 am55 °FClear.9 mph58%30.05 "Hg10 mi
3:15 am55 °FClear.10 mph58%30.05 "Hg10 mi
2:55 am57 °FClear.6 mph51%30.05 "Hg10 mi
2:35 am57 °FClear.5 mph51%30.05 "Hg10 mi
2:15 am54 °FClear.No wind72%30.02 "Hg10 mi
1:55 am54 °FClear.3 mph69%30.02 "Hg10 mi
1:35 am54 °FClear.No wind68%30.02 "Hg10 mi
1:15 am54 °FClear.No wind65%30.02 "Hg10 mi
12:55 am56 °FClear.No wind61%30.02 "Hg10 mi
12:35 am56 °FClear.No wind62%30.02 "Hg10 mi
12:15 am57 °FClear.5 mph60%30.01 "Hg10 mi
11:55 pm
Sat, Mar 28
57 °FClear.No wind61%30.01 "Hg10 mi
11:35 pm57 °FClear.No wind57%30.01 "Hg10 mi
11:15 pm62 °FClear.No wind44%30.00 "Hg10 mi
10:55 pm62 °FClear.No wind44%30.00 "Hg10 mi
10:35 pm63 °FClear.No wind44%30.00 "Hg10 mi
10:15 pm64 °FClear.No wind39%29.99 "Hg10 mi
9:55 pm65 °FClear.No wind37%29.98 "Hg10 mi
9:35 pm65 °FClear.No wind36%29.97 "Hg10 mi
9:15 pm67 °FClear.No wind32%29.96 "Hg10 mi
7:50 pm72 °FClear.No wind23%29.91 "Hg10 mi
6:50 pm75 °FSunny.14 mph16%29.89 "Hg10 mi
4:50 pm73 °FSunny.12 mph17%29.85 "Hg10 mi
3:50 pm75 °FSunny.12 mph16%29.85 "Hg10 mi
2:50 pm75 °FSunny.15 mph15%29.85 "Hg10 mi
1:50 pm73 °FSunny.15 mph16%29.87 "Hg10 mi
12:50 pm72 °FSunny.15 mph17%29.86 "Hg10 mi
11:50 am70 °FSunny.9 mph25%29.86 "Hg10 mi
10:50 am64 °FSunny.8 mph52%29.84 "Hg10 mi
9:50 am57 °FSunny.6 mph72%29.83 "Hg10 mi
8:50 am57 °FRain. Cloudy.9 mph72%29.88 "Hg2 mi
Weather by CustomWeather, © 2020

See weather overview

Advertising